Torna al catalogo

SL-12 DEB

LostHEO
NORAD 28583·DEBRIS·🇷🇺 Russia

Lanciato Jul 30, 1992 da Baikonur Cosmodrome

Loading…

Prossimi Passaggi (prossime 24 ore)

TLE

ObsoletoSource: Space-Track

Epoca: Feb 3, 2021, 09:23 UTC

1 28583U 92047S   21034.39131492 -.00000016  00000-0  00000+0 0  9997
2 28583  63.6353  37.0500 3749133 146.0175 244.9970  5.88834793280047

Traccia SL-12 DEB in tempo reale con AllMySat

Download on the App Store